Regional Weather Roundup
Issued by NWS Wakefield, VA

Home | Current Version | Previous Version | Text Only | Print | Product List | Glossary Off
Versions: 1 2 3 4 5 6 7 8 9 10 11 12 13 14 15 16 17 18 19 20 21 22 23 24 25 26 27 28 29 30 31 32 33 34 35 36 37 38 39 40 41 42 43 44 45 46 47 48 49 50

000
ASUS41 KAKQ 191714
RWRAKQ

REGIONAL WEATHER ROUNDUP
NATIONAL WEATHER SERVICE WAKEFIELD VA
100 PM EDT SUN APR 19 2015

Note: "fair" indicates few or no clouds below 12,000 feet with no
significant weather and/or obstructions to visibility. * = Denotes
station may not report precipitation (e.g., rain,snow,etc.),
thunder or fog.

VAZ042-051-052>054-056-191800-
NORTHERN VIRGINIA

CITY           SKY/WX    TMP DP  RH WIND       PRES   REMARKS
WASH NATIONAL  PTSUNNY   67  47  48 E16G22    30.13F
DULLES         CLOUDY    65  42  43 E17       30.11F
FORT BELVOIR   MOSUNNY   68  48  48 E8        30.11F
QUANTICO       MOSUNNY   67  47  48 SE17      30.11F
FREDERICKSBRG* PTSUNNY   69  51  52 E15G22    30.09F
STAFFORD*      PTSUNNY   69  43  39 E14G26    30.13F
WARRENTON      MOSUNNY   72  44  37 E12G18    30.09F
CULPEPER*      CLOUDY    72  39  30 SE9       30.10F
MANASSAS*      SUNNY     70  46  43 MISG      30.00F
LEESBURG*      CLOUDY    66  43  42 E9G21     30.11F
WINCHESTER     CLOUDY    66  28  24 SE13G20   30.09F
FRONT ROYAL*   PTSUNNY   64  41  42 E10G16    30.08F
LURAY*         FAIR      68  43  40 E10       30.07F
$$

VAZ048-049-060>072-079>083-191800-
CENTRAL AND SOUTH CENTRAL VIRGINIA

CITY           SKY/WX    TMP DP  RH WIND       PRES   REMARKS
RICHMOND       CLOUDY    72  49  44 E15       30.07F
CHESTERFIELD*  NOT AVBL
PETERSBURG*    CLOUDY    72  50  45 NE14      30.06F
HANOVER        CLOUDY    69  47  45 SE14G22   30.10F
TAPPAHANNOCK*  CLOUDY    68  50  52 E15G22    30.11F
QUINTON*       FAIR      70  50  50 E14G24    30.08F
CHARLOTTSVILLE CLOUDY    67  43  41 E10       30.06F
GORDONSVILLE*  FAIR      68  42  39 E7G17     30.07F
ORANGE*        CLOUDY    70  43  37 NE13G18   30.09F
LOUISA*        CLOUDY    72  45  37 E10       30.06F
BUMPASS*       FAIR      70  45  41 E9G16     30.07F
FARMVILLE*     CLOUDY    71  56  58 E14       30.03F
CREWE*         CLOUDY    71  56  59 E9        30.04F
FORT PICKETT*  CLOUDY    71  58  62 E14       30.05F
CHASE CITY*    CLOUDY    69  63  82 E7G17     30.01F
CLARKSVILLE*   PTSUNNY   68  59  73 E8        30.01F
SOUTH HILL*    CLOUDY    67  56  69 E6        30.09F
LAWRENCEVILLE* CLOUDY    68  58  72 E3        30.04F
EMPORIA*       CLOUDY    68  55  64 NE9       30.05F
$$

VAZ088>098-191800-
SOUTHEAST VIRGINIA

CITY           SKY/WX    TMP DP  RH WIND       PRES   REMARKS
NORFOLK        PTSUNNY   64  54  69 NE7G17    30.07F
VIRGINIA BEACH PTSUNNY   67  56  67 E15       30.06F
NORFOLK NAVAL  PTSUNNY   69  56  62 E14       30.09F
WEST POINT*    CLOUDY    72  51  47 E17G23    30.11F
SALUDA*        FAIR      63  55  76 E9        30.11F
NEWPORT NEWS   CLOUDY    71  58  63 E17G25    30.09F
LANGLEY AFB    CLOUDY    66  58  74 E15       30.07F
FORT EUSTIS    CLOUDY    69  55  60 E14G24    30.06F HAZE
WILLIAMSBURG*  CLOUDY    72  57  60 E20G26    30.09F
HR EXEC AP*    FAIR      73  54  49 E15       30.07F
FRANKLIN*      CLOUDY   N/A N/A N/A E12       30.04F
WAKEFIELD      CLOUDY    70  51  51 E13G21    30.06F
$$

VAZ020-022-025-037-045-191800-
WEST CENTRAL AND SOUTHWEST VIRGINIA

CITY           SKY/WX    TMP DP  RH WIND       PRES   REMARKS
STAUNTON*      DRIZZLE   63  46  53 NE6       30.08F
WAYNESBORO*    CLOUDY    60  47  61 E8        30.07F
HOT SPRINGS VA CLOUDY    55  48  77 E13G22    30.04F
LYNCHBURG      CLOUDY    67  55  65 E14       30.02F
DANVILLE       CLOUDY    69  59  70 E14G23    29.98F
SOUTH BOSTON*  CLOUDY    68  57  68 E13G18    30.01F
MARTINSVILLE   RAIN      65  65 100 E6        29.98F
ROANOKE        CLOUDY    64  57  78 E10G22    30.01F
BLACKSBURG     LGT RAIN  58  56  93 E16       30.01F
DUBLIN*        RAIN      61  61 100 E9        29.97F
MARION*        LGT RAIN  61  58  90 E14       29.95F
HILLSVILLE*    DRIZZLE   59  58  94 E15G28    29.95F
RICHLANDS*     DRIZZLE   60  54  82 SE15G31   29.88F
WISE*          RAIN      61  59  94 S8        29.87F
ABINGDON*      LGT RAIN  64  62  93 E7        29.88S
$$

MDZ021>025-VAZ099-100-191800-
SOUTHERN MARYLAND AND THE DELMARVA PENINSULA

CITY           SKY/WX    TMP DP  RH WIND       PRES   REMARKS
PATUXENT RIVER PTSUNNY   65  52  62 E16G24    30.13F
BAY BRIDGE APT   N/A     63  37  39 E17G24    30.17F
LEONARDTOWN    MOSUNNY   66  50  55 E8G23     30.14F
DOVER          PTSUNNY   57  43  58 E21G28    30.18F
GEORGETOWN     PTSUNNY   57  42  57 E18G26    30.20F
EASTON         SUNNY     66  48  52 E16G31    30.21S
CAMBRIDGE      MOSUNNY   64  46  52 E16G25    30.15F
SALISBURY      PTSUNNY   62  47  57 E20G31    30.17F
OCEAN CITY     PTSUNNY   56  45  66 NE17G24   30.18F
WALLOPS ISLAND CLOUDY    62  53  72 NE22      30.15F
ACCOMACK*      CLOUDY    63  50  63 E18G26    30.12F
$$

NCZ012>017-030>032-191800-
NORTH CENTRAL AND EASTERN NORTH CAROLINA

CITY           SKY/WX    TMP DP  RH WIND       PRES   REMARKS
ROANOKE RAPIDS PTSUNNY   68  55  64 E10       30.03F
RALEIGH        CLOUDY    72  62  71 E9G21     29.98F
ELIZABETH CITY CLOUDY    70  55  59 E14       30.05F
AHOSKIE*       CLOUDY    68  56  65 E7        30.04F
EDENTON*       CLOUDY    69  58  68 E12G17    30.04F
CURRITUCK*     CLOUDY    68  55  63 E8        30.07F
KILL DEVIL HLS CLOUDY    64  57  76 E8        30.03F
MANTEO         CLOUDY    66  59  77 E10       30.05F
CAPE HATTERAS  CLOUDY    71  64  78 E12       30.02F
TARBORO*       FAIR      73  59  61 E12G18    30.02F
GOLDSBORO      CLOUDY    73  65  76 E10       29.95F
WASHINGTON     PTSUNNY   69  62  76 E15       30.02F
GREENVILLE     PTSUNNY   72  61  68 E13       30.02F
NEW BERN       PTSUNNY   73  65  75 E10       30.01F
WILMINGTON     CLOUDY    69  66  90 E9        29.98S
$$

VAZ048-191800-
ELSEWHERE

CITY           SKY/WX    TMP DP  RH WIND       PRES   REMARKS
HARRISBURG PA  PTSUNNY   66  38  35 SE14      30.15F
BALTIMORE      PTSUNNY   63  40  42 E17       30.16F
ANNAPOLIS      PTSUNNY   62  42  47 E17G23    30.16F
ANDREWS AFB    SUNNY     66  46  48 E13G20    30.11F
PHILADELPHIA   PTSUNNY   65  38  36 E14       30.21F
HENDERSON NC   CLOUDY    68  55  62 E16       30.01F
GREENSBORO     LGT RAIN  66  63  88 SE13      29.94F FOG
ROCKY MOUNT    CLOUDY    71  59  65 E13G21    30.00F
$$

VAZ100-191800-
MARINE

STATION/POSITION TIME  TEMP    WIND        PRES    WAVE   SWELL
                       AIR SEA DIR/SP/G            HT/PER HT/PER
                 (UTC) (F)     (DEG/KT/KT) (MB)    (FT/S) (FT/S)
BRANDYWINE LGT   1600   52 50   90/ 21/ 25 1023.2R
CAPE MAY NJ      1600   55 54   80/ 11/ 19 1022.9S
LEWES DE         1600   51 52   80/ 20/ 23 1023.0R
15NM E FENWICK I 1650   50 48              1021.7S   6/ 6
OCEAN-CITY-INLET 1600   53 50   70/  9/ 15 1022.0
WACHAPREAGUE VA  1600   59 62   50/ 18/ 22 1020.5R
THOMAS POINT MD  1700   60 54   90/ 16/ 18 1021.7F
GOOSES REEF MD   1700   60 55  100/ 12/ 14   N/A     0
COVE POINT MD    1600   60     120/  9/ 11 1021.1S
SOLOMONS ISLAND  1600      56                N/A
BISHOPS HEAD MD  1600   65 63   90/ 16/ 22 1020.4R
PINEY POINT MD   1600          120/ 16/ 17   N/A
CAMBRIDGE MD     1600   61 60   90/ 19/ 25 1021.1F
LEWISETTA VA     1600   60 61              1020.6F
RAPPAHANNOCK LGT 1600           80/ 25/ 28 1020.2R
STINGRAY PT      1700   59 57  100/ 12/ 16 1020.9F   2/ 3
YORK RVR RNG VA  1600   60     100/ 13/ 15 1019.2F
YORKTOWN VA      1600   60 58   80/ 11/ 12 1019.6F
DOMINION TERM VA 1600   58      70/ 13/ 16 1019.6F
KIPTOPEKE VA     1600      60  100/ 12/ 21   N/A
CHES BAY BRIDGE  1600   55 55   50/  8/ 10 1019.0
CAPE HENRY VA    1600   56      50/  6/  7 1018.1F
CHESAPEAKE LGHT  1600   56      60/ 17/ 18 1019.5F
WILLOUBY STN VA  1600   57      70/  9/ 10 1020.0F
S CRANEY ISL VA  1600           50/ 11/ 12 1018.9F
CAPE HENRY BUOY  1628      53                N/A     2/ 8   2/12
1ST LANDING BUOY 1700   56      70/ 12/ 14 1018.1F   1/ 3
OFFSHORE WE BUOY 1611      51                N/A     3/13   2/13
64NM E OF VA BCH 1650   63 57   60/ 10/ 12 1017.6F   4/ 4   3/12
DUCK PIER NC     1600   58 57   60/ 13/ 14 1017.2F
44056 DUCK FRF   1611      56                N/A     3/13   2/13
OREGON INLET NC  1600   61 61   50/  7/ 10 1017.7F
HATTERAS NC      1600   69 66   80/ 11/ 13 1016.8
DIAMOND SHLS NC  1650   74 75  110/ 17/ 21 1016.4F   4/12   3/12
CAPE LOOKOUT NC  1700   71      80/ 10/ 11 1015.3F
$$


USA.gov is the U.S. government's official web portal to all federal, state and local government web resources and services.